Location: Maiden
(35.5760°N, 81.2120°W)
Time: 10:37:26
(UTC-04:00)

Courier 1B Rocket - All Passes

Search period start: 04 August 2020 00:00
Search period end: 14 August 2020 00:00
Orbit: 920 x 1202 km, 28.2° (Epoch: 03 August)

Date Brightness Start Highest point End Pass type
(mag) Time Alt. Az. Time Alt. Az. Time Alt. Az.
04 Aug - 04:40:28 10° S 04:44:16 16° SSE 04:48:13 10° ESE visible
04 Aug - 06:30:48 10° SW 06:36:58 36° SSE 06:43:32 10° E daylight
04 Aug - 08:23:16 10° WSW 08:30:07 49° S 08:37:24 10° ESE daylight
04 Aug - 10:16:34 10° W 10:23:25 40° SSW 10:30:33 10° SE daylight
04 Aug - 12:11:04 10° WSW 12:16:30 21° SSW 12:22:00 10° SSE daylight
05 Aug - 05:30:27 10° SW 05:36:02 29° SSE 05:41:59 10° ESE visible
05 Aug - 07:22:26 10° WSW 07:29:02 46° S 07:36:05 10° ESE daylight
05 Aug - 09:15:28 10° WSW 09:22:18 45° S 09:29:31 10° ESE daylight
05 Aug - 11:09:21 10° WSW 11:15:28 27° SSW 11:21:45 10° SSE daylight
06 Aug - 04:30:25 10° SSW 04:35:13 22° SSE 04:40:14 10° ESE visible
06 Aug - 06:21:45 10° WSW 06:28:01 41° S 06:34:44 10° ESE daylight
06 Aug - 08:14:29 10° WSW 08:21:12 47° S 08:28:21 10° ESE daylight
06 Aug - 10:07:59 10° WSW 10:14:24 33° SSW 10:21:07 10° SE daylight
06 Aug - 12:03:30 10° WSW 12:07:22 15° SSW 12:11:17 10° S daylight
07 Aug - 03:30:58 10° S 03:34:27 15° SSE 03:38:03 10° ESE visible
07 Aug - 05:21:13 10° SW 05:27:05 35° SSE 05:33:19 10° ESE visible
07 Aug - 07:13:37 10° WSW 07:20:08 47° S 07:27:07 10° ESE daylight
07 Aug - 09:06:49 10° WSW 09:13:21 39° SSW 09:20:15 10° SE daylight
07 Aug - 11:01:15 10° WSW 11:06:23 20° SSW 11:11:41 10° SSE daylight
08 Aug - 04:20:53 10° SW 04:26:13 28° SSE 04:31:49 10° ESE visible
08 Aug - 06:12:52 10° WSW 06:19:07 45° S 06:25:50 10° ESE visible
08 Aug - 08:05:48 10° WSW 08:12:17 43° S 08:19:13 10° ESE daylight
08 Aug - 09:59:36 10° WSW 10:05:23 26° SSW 10:11:25 10° SSE daylight
09 Aug - 03:20:52 10° SSW 03:25:26 21° SSE 03:30:10 10° ESE visible
09 Aug - 05:12:12 10° WSW 05:18:10 40° S 05:24:32 10° ESE visible
09 Aug - 07:04:53 10° WSW 07:11:15 46° S 07:18:05 10° ESE daylight
09 Aug - 08:58:18 10° WSW 09:04:22 31° SSW 09:10:48 10° SE daylight
09 Aug - 10:53:54 10° SW 10:57:18 14° SSW 11:00:46 10° S daylight
10 Aug - 02:21:23 10° S 02:24:42 15° SSE 02:28:04 10° ESE visible
10 Aug - 04:11:40 10° SW 04:17:18 34° SSE 04:23:12 10° ESE visible
10 Aug - 06:04:04 10° WSW 06:10:15 46° S 06:16:54 10° ESE visible
10 Aug - 07:57:12 10° WSW 08:03:22 37° SSW 08:09:57 10° SE daylight
10 Aug - 09:51:36 10° WSW 09:56:20 19° SSW 10:01:15 10° SSE daylight
11 Aug - 03:11:19 10° SW 03:16:29 27° SSE 03:21:49 10° ESE visible
11 Aug - 05:03:19 10° WSW 05:09:19 44° S 05:15:41 10° ESE visible
11 Aug - 06:56:14 10° WSW 07:02:23 41° S 07:08:58 10° ESE daylight
11 Aug - 08:50:01 10° WSW 08:55:23 24° SSW 09:01:03 10° SSE daylight
12 Aug - 02:11:15 10° SSW 02:15:43 21° SSE 02:20:16 10° ESE visible
12 Aug - 04:02:39 10° WSW 04:08:26 39° S 04:14:29 10° ESE visible
12 Aug - 05:55:21 10° WSW 06:01:26 44° S 06:07:54 10° ESE visible
12 Aug - 07:48:44 10° WSW 07:54:26 30° SSW 08:00:29 10° SE daylight
12 Aug - 09:44:34 10° SW 09:47:18 12° SSW 09:50:05 10° S daylight
13 Aug - 01:11:39 10° S 01:15:00 15° SSE 01:18:19 10° ESE night (unlit)
13 Aug - 03:02:05 10° SW 03:07:36 33° SSE 03:13:15 10° ESE visible
13 Aug - 04:54:31 10° WSW 05:00:30 45° S 05:06:48 10° ESE visible
13 Aug - 06:47:40 10° WSW 06:53:30 35° SSW 06:59:43 10° SE daylight
13 Aug - 08:42:08 10° WSW 08:46:23 17° SSW 08:50:48 10° SSE daylight
